GW1700 Weather Reports


time (UTC)temp
F
wind
direction
speed
knots
gust
knots
rain 1hr
in
rain 24hr
in
rain mn
in
humidity
%
barometer
mb
20260507093518 50 208 0.0 3.5 0.00 0.01 0.00 89 1024.0
20260507093038 50 216 0.0 3.5 0.00 0.01 0.00 89 1024.0
20260507092522 50 0 0.9 3.5 0.00 0.01 0.00 89 1024.0
20260507092019 50 231 0.9 4.3 0.00 0.01 0.00 89 1024.0
20260507091540 50 224 0.9 4.3 0.00 0.01 0.00 89 1024.0
20260507091019 50 234 0.0 3.5 0.00 0.01 0.00 90 1024.0
20260507090520 50 194 0.9 3.5 0.00 0.01 0.00 90 1024.0
20260507090039 50 0 0.9 2.6 0.00 0.01 0.00 90 1024.0
20260507085519 51 0 0.0 2.6 0.00 0.01 0.00 90 1024.0
20260507085020 51 0 0.0 2.6 0.00 0.01 0.00 91 1023.9
20260507084549 51 0 0.0 3.5 0.00 0.01 0.00 91 1023.9
20260507084018 51 0 0.0 4.3 0.00 0.01 0.00 91 1023.9
20260507083520 51 236 0.9 4.3 0.00 0.01 0.00 91 1023.9
20260507083036 51 271 0.9 4.3 0.00 0.01 0.00 91 1024.0
20260507082519 51 238 0.0 2.6 0.00 0.01 0.00 91 1024.0
20260507082019 51 234 0.0 4.3 0.00 0.01 0.00 91 1024.0
20260507081535 51 0 0.9 6.1 0.00 0.01 0.00 91 1024.0
20260507081019 51 223 2.6 6.1 0.00 0.01 0.00 91 1023.9
20260507080519 51 0 1.7 4.3 0.00 0.01 0.00 91 1024.0
20260507080035 51 225 1.7 4.3 0.00 0.01 0.00 91 1024.0
20260507075519 51 189 0.0 4.3 0.00 0.01 0.00 92 1024.0
20260507075022 51 231 0.9 4.3 0.00 0.01 0.00 92 1024.0
20260507074537 51 230 0.9 3.5 0.00 0.01 0.00 92 1024.0
20260507074018 51 216 0.9 3.5 0.00 0.01 0.00 92 1024.0
20260507073519 51 210 0.9 3.5 0.00 0.01 0.00 92 1023.9
20260507073037 51 236 0.0 2.6 0.00 0.01 0.00 92 1024.0
20260507072519 51 0 0.0 1.7 0.00 0.01 0.00 92 1024.0
20260507072019 51 0 0.0 1.7 0.00 0.01 0.00 92 1023.9
20260507071542 51 0 0.0 1.7 0.00 0.01 0.00 92 1023.8
20260507071019 51 0 0.0 0.9 0.00 0.01 0.00 92 1023.9
20260507070520 51 0 0.0 0.9 0.00 0.01 0.00 92 1023.9
20260507070042 51 0 0.0 0.0 0.00 0.01 0.00 91 1023.9
20260507065519 51 0 0.0 0.9 0.00 0.01 0.01 91 1023.9
20260507065019 51 0 0.0 0.9 0.00 0.01 0.01 91 1023.9
20260507064544 52 0 0.0 0.9 0.00 0.01 0.01 90 1023.9
20260507064019 52 0 0.0 0.0 0.00 0.01 0.01 90 1023.9
20260507063520 52 0 0.0 0.0 0.00 0.01 0.01 90 1023.8
20260507063037 52 0 0.0 0.9 0.00 0.01 0.01 89 1023.9
20260507062519 52 0 0.0 0.9 0.00 0.01 0.01 88 1024.0
20260507062019 52 261 0.0 0.9 0.00 0.01 0.01 87 1023.9
20260507061540 53 0 0.0 0.9 0.00 0.01 0.01 86 1023.9
20260507061019 53 0 0.0 0.0 0.00 0.01 0.01 87 1023.9
20260507060519 53 0 0.0 0.9 0.00 0.01 0.01 86 1023.9
20260507060040 53 0 0.0 0.9 0.00 0.01 0.01 86 1023.9
20260507055518 53 0 0.0 1.7 0.00 0.01 0.01 85 1023.9
20260507055016 53 0 0.0 4.3 0.00 0.01 0.01 84 1023.9
20260507054540 53 0 0.9 4.3 0.00 0.01 0.01 83 1024.0
20260507054022 53 235 0.0 3.5 0.00 0.01 0.01 84 1023.9
20260507053520 53 241 0.9 3.5 0.00 0.01 0.01 84 1023.9
20260507053038 53 0 0.0 3.5 0.00 0.01 0.01 84 1023.8
20260507052524 53 240 0.9 3.5 0.00 0.01 0.01 85 1023.8
20260507052020 53 196 0.0 2.6 0.00 0.01 0.01 85 1023.9
20260507051536 53 0 0.0 0.0 0.00 0.01 0.01 85 1023.9
20260507051026 53 0 0.0 0.0 0.00 0.01 0.01 85 1023.8
20260507050519 53 0 0.0 0.0 0.00 0.01 0.01 85 1023.9
20260507050058 53 0 0.0 0.0 0.00 0.01 0.01 85 1023.9
20260507045519 53 0 0.0 0.0 0.00 0.01 0.01 85 1023.9
20260507045019 53 0 0.0 0.0 0.00 0.01 0.01 85 1023.9
20260507044546 53 0 0.0 0.9 0.00 0.01 0.01 84 1023.9
20260507044019 54 0 0.0 2.6 0.00 0.01 0.01 84 1023.8
20260507043519 54 0 0.0 2.6 0.00 0.01 0.01 84 1023.8
20260507043036 53 0 0.9 2.6 0.00 0.01 0.01 84 1023.8
20260507042519 53 0 0.0 1.7 0.00 0.01 0.01 85 1023.8
20260507042018 53 0 0.0 1.7 0.00 0.01 0.01 85 1023.9
20260507041536 53 0 0.0 1.7 0.00 0.01 0.01 86 1023.8
20260507041020 53 0 0.0 1.7 0.00 0.01 0.01 85 1023.9
20260507040520 53 0 0.0 0.0 0.00 0.01 0.01 86 1023.8
20260507040036 54 0 0.0 0.0 0.00 0.01 0.01 86 1023.8
20260507035519 54 0 0.0 0.0 0.00 0.01 0.01 86 1023.7
20260507035021 54 0 0.0 0.0 0.00 0.01 0.01 85 1023.6
20260507034540 54 0 0.0 1.7 0.00 0.01 0.01 85 1023.6
20260507034021 54 0 0.0 1.7 0.00 0.01 0.01 85 1023.5
20260507033520 54 223 0.0 1.7 0.00 0.01 0.01 85 1023.5
20260507033042 54 0 0.0 0.9 0.00 0.01 0.01 84 1023.4
20260507032519 54 0 0.0 0.9 0.00 0.01 0.01 84 1023.5
20260507032019 54 0 0.0 0.9 0.00 0.01 0.01 84 1023.4
20260507031536 54 0 0.0 0.9 0.00 0.01 0.01 84 1023.2
20260507031021 54 0 0.0 0.9 0.00 0.01 0.01 84 1023.2
20260507030521 54 0 0.0 0.9 0.00 0.01 0.01 84 1023.2
20260507030038 54 0 0.0 0.9 0.00 0.01 0.01 85 1023.2
20260507025519 54 0 0.0 0.0 0.00 0.01 0.01 84 1023.2
20260507025020 54 0 0.0 0.0 0.00 0.01 0.01 84 1023.2
20260507024541 54 0 0.0 0.9 0.00 0.01 0.01 84 1023.2
20260507024019 54 0 0.0 0.9 0.00 0.01 0.01 84 1023.1
20260507023519 54 0 0.0 0.9 0.00 0.01 0.01 84 1023.1
20260507023038 54 0 0.0 1.7 0.00 0.01 0.01 84 1023.2
20260507022519 54 0 0.0 1.7 0.00 0.01 0.01 84 1023.1
20260507022021 54 0 0.0 0.9 0.00 0.01 0.01 83 1023.0
20260507021547 54 0 0.0 0.9 0.00 0.01 0.01 83 1023.2
20260507021019 54 0 0.0 0.0 0.00 0.01 0.01 83 1023.1
20260507020520 54 0 0.0 0.0 0.00 0.01 0.01 83 1023.2
20260507020036 54 0 0.0 0.0 0.00 0.01 0.01 84 1023.2
20260507015519 54 0 0.0 0.0 0.00 0.01 0.01 84 1023.2
20260507015019 54 0 0.0 0.0 0.00 0.01 0.01 82 1023.2
20260507014535 54 0 0.0 0.0 0.00 0.01 0.01 82 1023.1
20260507014025 54 0 0.0 0.0 0.00 0.01 0.01 84 1023.1
20260507013519 54 0 0.0 0.0 0.00 0.01 0.01 83 1023.1
20260507013038 55 0 0.0 0.0 0.00 0.01 0.01 83 1023.2
20260507012522 55 0 0.0 0.0 0.00 0.01 0.01 83 1023.1
20260507012019 54 0 0.0 0.0 0.00 0.01 0.01 82 1023.2
20260507011538 55 0 0.0 2.6 0.00 0.01 0.01 82 1023.1
20260507011019 55 0 0.0 2.6 0.00 0.01 0.01 82 1023.1
20260507010520 55 48 0.0 2.6 0.00 0.01 0.01 82 1023.2
20260507010043 55 0 0.0 2.6 0.00 0.01 0.01 81 1023.2
20260507005520 55 86 0.9 2.6 0.00 0.01 0.01 81 1023.2
20260507005026 55 77 0.0 3.5 0.00 0.01 0.01 82 1023.3
20260507004535 55 81 0.0 3.5 0.00 0.01 0.01 82 1023.2
20260507004020 54 105 0.0 2.6 0.00 0.01 0.01 82 1023.3
20260507003520 54 0 0.0 2.6 0.00 0.01 0.01 82 1023.4
20260507003035 55 0 0.0 2.6 0.00 0.01 0.01 82 1023.3
20260507002519 55 0 0.0 1.7 0.00 0.01 0.01 82 1023.4
20260507002019 54 0 0.0 2.6 0.00 0.01 0.01 83 1023.4
20260507001537 54 0 0.0 2.6 0.00 0.01 0.01 82 1023.4
20260507001019 55 88 0.0 2.6 0.00 0.01 0.01 82 1023.3
20260507000523 55 87 0.0 2.6 0.00 0.01 0.01 83 1023.3
20260507000038 54 0 0.0 2.6 0.00 0.01 0.01 82 1023.3
20260506235520 54 63 0.0 2.6 0.00 0.01 0.01 82 1023.4
20260506235025 54 0 0.0 0.9 0.00 0.01 0.01 82 1023.4
20260506234548 54 0 0.0 0.9 0.00 0.01 0.01 81 1023.4
20260506234020 55 0 0.0 0.9 0.00 0.01 0.01 82 1023.4
20260506233520 55 0 0.0 0.0 0.00 0.01 0.01 82 1023.4
20260506233036 55 0 0.0 0.9 0.00 0.01 0.01 82 1023.5
20260506232522 55 0 0.0 0.9 0.00 0.01 0.01 82 1023.4
20260506232019 55 0 0.0 0.9 0.00 0.01 0.01 81 1023.4
20260506231538 54 0 0.0 0.9 0.00 0.01 0.01 82 1023.5
20260506231018 54 0 0.0 0.9 0.00 0.01 0.01 81 1023.4
20260506230519 54 0 0.0 0.9 0.00 0.01 0.01 81 1023.4
20260506230040 55 320 0.0 0.9 0.00 0.01 0.01 81 1023.4
20260506225519 55 0 0.0 1.7 0.00 0.01 0.01 82 1023.5
20260506225019 55 0 0.0 1.7 0.00 0.01 0.01 83 1023.5
20260506224530 55 0 0.0 1.7 0.00 0.01 0.01 82 1023.5
20260506224021 55 248 0.0 1.7 0.00 0.01 0.01 82 1023.6
20260506223518 55 0 0.0 0.9 0.00 0.01 0.01 83 1023.6
20260506223030 55 0 0.0 0.9 0.00 0.01 0.01 82 1023.6
20260506222518 55 0 0.0 1.7 0.00 0.01 0.01 82 1023.6
20260506222019 55 0 0.0 1.7 0.00 0.01 0.01 83 1023.7
20260506221534 55 234 0.0 1.7 0.00 0.01 0.01 83 1023.7
20260506221016 54 0 0.0 1.7 0.00 0.01 0.01 82 1023.7
20260506220517 54 0 0.0 1.7 0.00 0.01 0.01 83 1023.7
20260506220036 55 58 0.0 1.7 0.00 0.01 0.01 83 1023.7
20260506215517 55 319 0.0 1.7 0.00 0.01 0.01 85 1023.7
20260506215017 54 0 0.0 1.7 0.00 0.01 0.01 84 1023.7
20260506214534 54 0 0.0 1.7 0.00 0.01 0.01 84 1023.6
20260506214017 54 0 0.0 1.7 0.00 0.01 0.01 84 1023.7
20260506213516 54 0 0.0 1.7 0.00 0.01 0.01 85 1023.6
20260506213033 55 0 0.0 1.7 0.00 0.01 0.01 86 1023.7
20260506212520 55 0 0.0 1.7 0.00 0.01 0.01 85 1023.7
20260506212020 55 0 0.0 1.7 0.00 0.01 0.01 85 1023.8
20260506211535 55 0 0.0 2.6 0.00 0.01 0.01 85 1023.7
20260506211017 55 0 0.0 2.6 0.00 0.01 0.01 85 1023.6
20260506210518 55 0 0.0 2.6 0.00 0.01 0.01 86 1023.6
20260506210038 55 0 0.0 2.6 0.00 0.01 0.01 86 1023.6
20260506205517 55 257 0.0 2.6 0.00 0.01 0.01 85 1023.5
20260506205020 55 0 0.0 1.7 0.00 0.01 0.01 86 1023.5
20260506204547 55 0 0.0 7.0 0.00 0.01 0.01 86 1023.5
20260506204017 55 238 0.0 7.0 0.00 0.01 0.01 85 1023.5
20260506203522 55 0 1.7 7.0 0.00 0.01 0.01 84 1023.4
20260506203033 55 188 1.7 7.0 0.00 0.01 0.01 85 1023.4
20260506202518 55 0 0.0 2.6 0.00 0.01 0.01 85 1023.4
20260506202017 55 0 0.0 7.0 0.00 0.01 0.01 85 1023.4
20260506201539 55 0 1.7 7.0 0.00 0.01 0.01 84 1023.5
20260506201017 55 245 0.0 3.5 0.00 0.01 0.01 84 1023.4
20260506200517 55 162 0.9 5.2 0.00 0.01 0.01 84 1023.4
20260506200036 55 176 0.9 6.1 0.00 0.01 0.01 84 1023.4
20260506195518 55 230 1.7 6.1 0.00 0.01 0.01 84 1023.4
20260506195024 55 0 0.9 8.7 0.00 0.01 0.01 85 1023.3
20260506194539 55 0 2.6 8.7 0.00 0.01 0.01 85 1023.2
20260506194018 55 167 0.9 6.1 0.00 0.01 0.01 85 1023.2
20260506193520 55 186 1.7 5.2 0.00 0.01 0.01 84 1023.1
20260506193031 55 132 1.7 5.2 0.00 0.01 0.01 85 1023.2
20260506192519 55 134 0.9 5.2 0.00 0.01 0.01 86 1023.2
20260506192019 55 236 1.7 6.1 0.00 0.01 0.01 85 1023.2
20260506191537 55 269 0.9 6.1 0.00 0.01 0.01 85 1023.2
20260506191020 55 226 1.7 6.1 0.00 0.01 0.01 85 1023.2
20260506190520 55 234 0.9 4.3 0.00 0.01 0.01 87 1023.1
20260506190038 54 210 1.7 7.8 0.00 0.01 0.01 86 1023.2
20260506185518 54 235 2.6 7.8 0.00 0.01 0.01 86 1023.2
20260506185019 54 220 3.5 6.1 0.00 0.01 0.01 86 1023.3
20260506184535 54 219 3.5 6.1 0.00 0.01 0.01 86 1023.4
20260506184021 54 238 1.7 6.1 0.00 0.01 0.01 86 1023.2
20260506183520 54 234 1.7 7.0 0.00 0.01 0.01 87 1023.2
20260506183038 54 207 2.6 7.0 0.00 0.01 0.01 88 1023.0
20260506182519 54 175 0.0 4.3 0.00 0.01 0.01 88 1023.0
20260506182019 54 194 1.7 4.3 0.00 0.01 0.01 89 1023.0
20260506181536 54 218 0.9 4.3 0.00 0.01 0.01 89 1023.0
20260506181019 54 162 1.7 4.3 0.00 0.01 0.01 89 1023.1
20260506180524 53 189 0.9 3.5 0.00 0.01 0.01 90 1023.1
20260506180038 53 0 0.9 4.3 0.00 0.01 0.01 90 1023.0
20260506175518 53 227 1.7 4.3 0.00 0.01 0.01 91 1023.0
20260506175019 53 254 1.7 4.3 0.00 0.01 0.01 91 1023.2
20260506174536 53 254 1.7 4.3 0.00 0.01 0.01 91 1023.1
20260506174020 53 205 0.9 4.3 0.00 0.01 0.01 93 1023.2
20260506173519 53 0 0.0 3.5 0.00 0.01 0.01 92 1023.1
20260506173037 52 213 0.9 4.3 0.00 0.01 0.01 93 1023.2
20260506172519 52 234 0.0 4.3 0.00 0.01 0.01 93 1023.1
20260506172019 52 280 1.7 4.3 0.00 0.01 0.01 93 1023.1
20260506171543 52 242 0.9 3.5 0.00 0.01 0.01 93 1023.1
20260506171019 52 0 0.0 3.5 0.00 0.01 0.01 93 1023.1
20260506170519 52 236 0.9 3.5 0.00 0.01 0.01 94 1023.0
20260506170042 52 225 0.9 5.2 0.00 0.01 0.01 94 1023.0
20260506165519 52 286 1.7 5.2 0.00 0.01 0.01 93 1022.9
20260506165019 52 298 1.7 4.3 0.00 0.01 0.01 94 1022.8
20260506164546 52 233 0.9 4.3 0.00 0.01 0.01 94 1022.6
20260506164020 52 0 0.9 4.3 0.00 0.01 0.01 94 1022.5
20260506163525 52 175 0.9 3.5 0.00 0.01 0.01 95 1022.5
20260506163032 52 227 1.7 4.3 0.00 0.01 0.01 94 1022.5
20260506162517 52 246 0.0 4.3 0.00 0.01 0.01 95 1022.5
20260506162020 52 0 0.0 3.5 0.01 0.01 0.01 95 1022.3
20260506161539 52 232 1.7 4.3 0.01 0.01 0.01 95 1022.6
20260506161017 52 217 2.6 4.3 0.01 0.01 0.01 95 1022.7
20260506160521 52 275 0.9 4.3 0.01 0.01 0.01 95 1022.9
20260506160044 52 0 0.9 4.3 0.01 0.01 0.01 95 1022.8
20260506155517 52 222 1.7 4.3 0.01 0.01 0.01 95 1022.8
20260506155017 52 269 0.9 3.5 0.01 0.01 0.01 95 1022.7
20260506154536 52 249 0.9 2.6 0.01 0.01 0.01 95 1022.7
20260506154015 52 235 0.0 2.6 0.01 0.01 0.01 95 1022.7
20260506153517 52 194 0.0 3.5 0.01 0.01 0.01 95 1022.5
20260506153033 52 0 0.0 3.5 0.01 0.01 0.01 95 1022.3
20260506152518 52 205 0.9 4.3 0.01 0.01 0.01 95 1022.4
20260506152018 52 221 1.7 4.3 0.00 0.00 0.00 94 1022.6
20260506151549 52 252 0.0 2.6 0.00 0.00 0.00 95 1022.6
20260506151019 52 0 0.0 2.6 0.00 0.00 0.00 95 1022.7
20260506150519 52 209 0.9 2.6 0.00 0.00 0.00 95 1022.6
20260506150035 52 0 0.0 1.7 0.00 0.00 0.00 95 1022.8
20260506145518 52 0 0.0 1.7 0.00 0.00 0.00 95 1022.7
20260506145023 52 240 0.0 1.7 0.00 0.00 0.00 95 1022.5
20260506144535 52 0 0.0 3.5 0.00 0.00 0.00 95 1022.3
20260506144029 52 0 0.0 4.3 0.00 0.00 0.00 95 1022.4
20260506143519 52 157 1.7 4.3 0.00 0.00 0.00 94 1022.1
20260506143044 52 154 0.9 4.3 0.00 0.00 0.00 94 1022.2
20260506142518 52 0 0.9 3.5 0.00 0.00 0.00 94 1022.3
20260506142017 52 0 0.9 3.5 0.00 0.00 0.00 94 1022.4
20260506141530 52 227 0.9 3.5 0.00 0.00 0.00 94 1022.3
20260506141016 52 216 0.0 2.6 0.00 0.00 0.00 94 1022.6
20260506140518 52 196 0.0 2.6 0.00 0.00 0.00 94 1022.4
20260506140038 52 0 0.0 3.5 0.00 0.00 0.00 94 1022.4
20260506135517 52 223 1.7 3.5 0.00 0.00 0.00 94 1022.4
20260506135020 52 0 0.9 3.5 0.00 0.00 0.00 94 1022.5
20260506134536 52 238 0.9 4.3 0.00 0.00 0.00 94 1022.3
20260506134017 52 205 0.9 4.3 0.00 0.00 0.00 94 1022.3
20260506133518 52 232 0.9 5.2 0.00 0.00 0.00 94 1022.3
20260506133039 52 212 2.6 5.2 0.00 0.00 0.00 93 1022.1
20260506132520 52 130 1.7 3.5 0.00 0.00 0.00 94 1021.9
20260506132017 52 0 0.0 3.5 0.00 0.00 0.00 94 1022.0
20260506131533 52 0 0.0 3.5 0.00 0.00 0.00 93 1022.0
20260506131022 52 175 0.9 3.5 0.00 0.00 0.00 94 1022.0
20260506130521 52 169 0.0 4.3 0.00 0.00 0.00 94 1021.9
20260506130033 52 205 0.9 4.3 0.00 0.00 0.00 94 1022.0
20260506125517 52 194 0.9 5.2 0.00 0.00 0.00 94 1021.8
20260506125019 52 0 1.7 5.2 0.00 0.00 0.00 93 1021.8
20260506124530 52 157 0.9 5.2 0.00 0.00 0.00 93 1021.8
20260506124017 52 211 0.0 3.5 0.00 0.00 0.00 93 1021.7
20260506123518 52 154 0.9 3.5 0.00 0.00 0.00 93 1021.7
20260506123036 52 137 0.9 3.5 0.00 0.00 0.00 93 1021.6
20260506122518 52 0 0.0 3.5 0.00 0.00 0.00 93 1021.7
20260506122017 52 186 0.0 3.5 0.00 0.00 0.00 93 1021.7
20260506121533 52 186 0.0 3.5 0.00 0.00 0.00 92 1021.7
20260506121017 52 173 0.9 3.5 0.00 0.00 0.00 92 1021.6
20260506120520 52 188 0.0 3.5 0.00 0.00 0.00 92 1021.5
20260506120038 52 0 0.0 4.3 0.00 0.00 0.00 91 1021.4
20260506115514 52 197 0.9 4.3 0.00 0.00 0.00 91 1021.4
20260506115017 53 202 0.0 3.5 0.00 0.00 0.00 91 1021.4
20260506114540 53 155 0.9 4.3 0.00 0.00 0.00 90 1021.5
20260506114017 53 201 1.7 4.3 0.00 0.00 0.00 90 1021.5
20260506113518 53 226 0.9 4.3 0.00 0.00 0.00 90 1021.6
20260506113036 53 139 0.9 4.3 0.00 0.00 0.00 89 1021.5
20260506112519 53 195 1.7 4.3 0.00 0.00 0.00 89 1021.4
20260506112017 53 0 0.0 1.7 0.00 0.00 0.00 88 1021.5
20260506111537 53 174 0.0 3.5 0.00 0.00 0.00 88 1021.4
20260506111017 53 225 0.0 3.5 0.00 0.00 0.00 88 1021.3
20260506110520 53 206 0.0 3.5 0.00 0.00 0.00 88 1021.2
20260506110046 53 251 0.9 4.3 0.00 0.00 0.00 87 1021.2
20260506105518 53 0 1.7 4.3 0.00 0.00 0.00 87 1021.2
20260506105018 53 189 0.9 3.5 0.00 0.00 0.00 87 1021.0
20260506104537 53 227 0.0 3.5 0.00 0.00 0.00 87 1021.0
20260506104018 53 226 0.9 3.5 0.00 0.00 0.00 87 1021.0
20260506103519 53 0 0.0 2.6 0.00 0.00 0.00 87 1021.0
20260506103036 53 239 0.9 3.5 0.00 0.00 0.00 87 1020.9
20260506102518 53 249 0.9 3.5 0.00 0.00 0.00 87 1020.8
20260506102018 53 248 0.9 4.3 0.00 0.00 0.00 87 1020.8
20260506101549 53 263 1.7 6.1 0.00 0.00 0.00 87 1020.8
20260506101018 53 220 1.7 6.1 0.00 0.00 0.00 87 1020.7
20260506100520 53 249 1.7 5.2 0.00 0.00 0.00 86 1020.6
20260506100035 54 228 2.6 5.2 0.00 0.00 0.00 87 1020.6
20260506095517 54 231 0.9 6.1 0.00 0.00 0.00 87 1020.6
20260506095016 54 231 1.7 6.1 0.00 0.00 0.00 87 1020.5
20260506094530 54 263 1.7 5.2 0.00 0.00 0.00 87 1020.4
20260506094017 54 231 1.7 4.3 0.00 0.00 0.00 87 1020.3